Time,TemperatureF,DewpointF,PressureIn,WindDirection,WindDirectionDegrees,WindSpeedMPH,WindSpeedGustMPH,Humidity,HourlyPrecipIn,Conditions,Clouds,dailyrainin,SoftwareType,DateUTC
2013-02-19 00:01:00,72.0,60.0,-100.00,East,83,9.0,22.0,66,0.00,,,0.00,,2013-02-19 10:01:00,
2013-02-19 00:11:00,72.0,60.0,-100.00,East,83,9.0,22.0,66,0.00,,,0.00,,2013-02-19 10:11:00,
2013-02-19 00:21:00,72.0,60.0,-100.00,East,83,9.0,22.0,66,0.00,,,0.00,,2013-02-19 10:21:00,
2013-02-19 00:31:00,72.0,60.0,-100.00,East,83,9.0,22.0,66,0.00,,,0.00,,2013-02-19 10:31:00,
2013-02-19 00:41:00,72.0,60.0,-100.00,ENE,73,9.0,15.0,67,0.00,,,0.00,,2013-02-19 10:41:00,
2013-02-19 01:01:00,72.0,60.0,-100.00,ENE,73,9.0,15.0,67,0.00,,,0.00,,2013-02-19 11:01:00,
2013-02-19 01:11:00,72.0,60.0,-100.00,ENE,73,9.0,15.0,67,0.00,,,0.00,,2013-02-19 11:11:00,
2013-02-19 01:21:00,72.0,60.0,-100.00,ENE,73,9.0,15.0,67,0.00,,,0.00,,2013-02-19 11:21:00,
2013-02-19 01:31:00,72.0,60.0,-100.00,ENE,73,9.0,15.0,67,0.00,,,0.00,,2013-02-19 11:31:00,
2013-02-19 01:41:00,69.0,59.0,-100.00,East,79,7.0,22.0,70,0.00,,,0.00,,2013-02-19 11:41:00,
2013-02-19 02:01:00,69.0,59.0,-100.00,East,79,7.0,22.0,70,0.00,,,0.00,,2013-02-19 12:01:00,
2013-02-19 02:12:00,69.0,59.0,-100.00,East,79,7.0,22.0,70,0.00,,,0.00,,2013-02-19 12:12:00,
2013-02-19 02:21:00,69.0,59.0,-100.00,East,79,7.0,22.0,70,0.00,,,0.00,,2013-02-19 12:21:00,
2013-02-19 02:32:00,69.0,59.0,-100.00,East,79,7.0,22.0,70,0.00,,,0.00,,2013-02-19 12:32:00,
2013-02-19 02:41:00,69.0,63.0,-100.00,East,81,12.0,17.0,80,0.00,,,0.00,,2013-02-19 12:41:00,
2013-02-19 03:02:00,69.0,63.0,-100.00,East,81,12.0,17.0,80,0.00,,,0.00,,2013-02-19 13:02:00,
2013-02-19 03:11:00,69.0,63.0,-100.00,East,81,12.0,17.0,80,0.00,,,0.00,,2013-02-19 13:11:00,
2013-02-19 03:22:00,69.0,63.0,-100.00,East,81,12.0,17.0,80,0.00,,,0.00,,2013-02-19 13:22:00,
2013-02-19 03:31:00,69.0,63.0,-100.00,East,81,12.0,17.0,80,0.00,,,0.00,,2013-02-19 13:31:00,
2013-02-19 03:41:00,69.0,63.0,-100.00,ENE,62,8.0,18.0,80,0.00,,,0.00,,2013-02-19 13:41:00,
2013-02-19 04:01:00,69.0,63.0,-100.00,ENE,62,8.0,18.0,80,0.00,,,0.00,,2013-02-19 14:01:00,
2013-02-19 04:11:00,69.0,63.0,-100.00,ENE,62,8.0,18.0,80,0.00,,,0.00,,2013-02-19 14:11:00,
2013-02-19 04:21:00,69.0,63.0,-100.00,ENE,62,8.0,18.0,80,0.00,,,0.00,,2013-02-19 14:21:00,
2013-02-19 04:32:00,69.0,63.0,-100.00,ENE,62,8.0,18.0,80,0.00,,,0.00,,2013-02-19 14:32:00,
2013-02-19 04:41:00,71.0,61.0,-100.00,East,79,12.0,20.0,70,0.00,,,0.00,,2013-02-19 14:41:00,
2013-02-19 05:01:00,71.0,61.0,-100.00,East,79,12.0,20.0,70,0.00,,,0.00,,2013-02-19 15:01:00,
2013-02-19 05:11:00,71.0,61.0,-100.00,East,79,12.0,20.0,70,0.00,,,0.00,,2013-02-19 15:11:00,
2013-02-19 05:21:00,71.0,61.0,-100.00,East,79,12.0,20.0,70,0.00,,,0.00,,2013-02-19 15:21:00,
2013-02-19 05:31:00,71.0,61.0,-100.00,East,79,12.0,20.0,70,0.00,,,0.00,,2013-02-19 15:31:00,
2013-02-19 05:41:00,71.0,59.0,-100.00,East,81,13.0,23.0,65,0.00,,,0.00,,2013-02-19 15:41:00,
2013-02-19 06:01:00,71.0,59.0,-100.00,East,81,13.0,23.0,65,0.00,,,0.00,,2013-02-19 16:01:00,
2013-02-19 06:11:00,71.0,59.0,-100.00,East,81,13.0,23.0,65,0.00,,,0.00,,2013-02-19 16:11:00,
2013-02-19 06:21:00,71.0,59.0,-100.00,East,81,13.0,23.0,65,0.00,,,0.00,,2013-02-19 16:21:00,
2013-02-19 06:31:00,71.0,59.0,-100.00,East,81,13.0,23.0,65,0.00,,,0.00,,2013-02-19 16:31:00,
2013-02-19 06:41:00,71.0,57.0,-100.00,East,80,11.0,20.0,62,0.00,,,-99.99,,2013-02-19 16:41:00,
2013-02-19 07:01:00,71.0,57.0,-100.00,East,80,11.0,20.0,62,0.00,,,-99.99,,2013-02-19 17:01:00,
2013-02-19 07:11:00,71.0,57.0,-100.00,East,80,11.0,20.0,62,0.00,,,-99.99,,2013-02-19 17:11:00,
2013-02-19 07:21:00,71.0,57.0,-100.00,East,80,11.0,20.0,62,0.00,,,-99.99,,2013-02-19 17:21:00,
2013-02-19 07:32:00,71.0,57.0,-100.00,East,80,11.0,20.0,62,0.00,,,-99.99,,2013-02-19 17:32:00,
2013-02-19 07:41:00,72.0,58.0,-100.00,ENE,76,11.0,15.0,61,0.00,,,0.00,,2013-02-19 17:41:00,
2013-02-19 08:01:00,72.0,58.0,-100.00,ENE,76,11.0,15.0,61,0.00,,,0.00,,2013-02-19 18:01:00,
2013-02-19 08:11:00,72.0,58.0,-100.00,ENE,76,11.0,15.0,61,0.00,,,0.00,,2013-02-19 18:11:00,
2013-02-19 08:21:00,72.0,58.0,-100.00,ENE,76,11.0,15.0,61,0.00,,,0.00,,2013-02-19 18:21:00,
2013-02-19 08:31:00,72.0,58.0,-100.00,ENE,76,11.0,15.0,61,0.00,,,0.00,,2013-02-19 18:31:00,
2013-02-19 08:41:00,73.0,57.0,-100.00,ENE,75,10.0,18.0,57,0.00,,,0.00,,2013-02-19 18:41:00,
2013-02-19 09:01:00,73.0,57.0,-100.00,ENE,75,10.0,18.0,57,0.00,,,0.00,,2013-02-19 19:01:00,
2013-02-19 09:11:00,73.0,57.0,-100.00,ENE,75,10.0,18.0,57,0.00,,,0.00,,2013-02-19 19:11:00,
2013-02-19 09:21:00,73.0,57.0,-100.00,ENE,75,10.0,18.0,57,0.00,,,0.00,,2013-02-19 19:21:00,
2013-02-19 09:31:00,73.0,57.0,-100.00,ENE,75,10.0,18.0,57,0.00,,,0.00,,2013-02-19 19:31:00,
2013-02-19 09:41:00,73.0,58.0,-100.00,East,80,12.0,23.0,60,0.00,,,0.00,,2013-02-19 19:41:00,
2013-02-19 10:01:00,73.0,58.0,-100.00,East,80,12.0,23.0,60,0.00,,,0.00,,2013-02-19 20:01:00,
2013-02-19 10:11:00,73.0,58.0,-100.00,East,80,12.0,23.0,60,0.00,,,0.00,,2013-02-19 20:11:00,
2013-02-19 10:21:00,73.0,58.0,-100.00,East,80,12.0,23.0,60,0.00,,,0.00,,2013-02-19 20:21:00,
2013-02-19 10:31:00,73.0,58.0,-100.00,East,80,12.0,23.0,60,0.00,,,0.00,,2013-02-19 20:31:00,
2013-02-19 10:41:00,73.0,57.0,-100.00,ENE,71,13.0,27.0,58,0.00,,,0.00,,2013-02-19 20:41:00,
2013-02-19 11:01:00,73.0,57.0,-100.00,ENE,71,13.0,27.0,58,0.00,,,0.00,,2013-02-19 21:01:00,
2013-02-19 11:11:00,73.0,57.0,-100.00,ENE,71,13.0,27.0,58,0.00,,,0.00,,2013-02-19 21:11:00,
2013-02-19 11:21:00,73.0,57.0,-100.00,ENE,71,13.0,27.0,58,0.00,,,0.00,,2013-02-19 21:21:00,
2013-02-19 11:31:00,73.0,57.0,-100.00,ENE,71,13.0,27.0,58,0.00,,,0.00,,2013-02-19 21:31:00,
2013-02-19 11:41:00,73.0,60.0,-100.00,East,90,15.0,24.0,64,0.00,,,0.00,,2013-02-19 21:41:00,
2013-02-19 12:02:00,73.0,60.0,-100.00,East,90,15.0,24.0,64,0.00,,,0.00,,2013-02-19 22:02:00,
2013-02-19 12:11:00,73.0,60.0,-100.00,East,90,15.0,24.0,64,0.00,,,0.00,,2013-02-19 22:11:00,
2013-02-19 12:21:00,73.0,60.0,-100.00,East,90,15.0,24.0,64,0.00,,,0.00,,2013-02-19 22:21:00,
2013-02-19 12:32:00,73.0,60.0,-100.00,East,90,15.0,24.0,64,0.00,,,0.00,,2013-02-19 22:32:00,
2013-02-19 12:41:00,74.0,63.0,-100.00,ENE,73,14.0,26.0,69,0.00,,,0.00,,2013-02-19 22:41:00,
2013-02-19 13:01:00,74.0,63.0,-100.00,ENE,73,14.0,26.0,69,0.00,,,0.00,,2013-02-19 23:01:00,
2013-02-19 13:11:00,74.0,63.0,-100.00,ENE,73,14.0,26.0,69,0.00,,,0.00,,2013-02-19 23:11:00,
2013-02-19 13:21:00,74.0,63.0,-100.00,ENE,73,14.0,26.0,69,0.00,,,0.00,,2013-02-19 23:21:00,
2013-02-19 13:31:00,74.0,63.0,-100.00,ENE,73,14.0,26.0,69,0.00,,,0.00,,2013-02-19 23:31:00,
2013-02-19 13:41:00,74.0,59.0,-100.00,East,80,16.0,22.0,59,0.00,,,0.00,,2013-02-19 23:41:00,
2013-02-19 14:01:00,74.0,59.0,-100.00,East,80,16.0,22.0,59,0.00,,,0.00,,2013-02-20 00:01:00,
2013-02-19 14:11:00,74.0,59.0,-100.00,East,80,16.0,22.0,59,0.00,,,0.00,,2013-02-20 00:11:00,
2013-02-19 14:21:00,74.0,59.0,-100.00,East,80,16.0,22.0,59,0.00,,,0.00,,2013-02-20 00:21:00,
2013-02-19 14:31:00,74.0,59.0,-100.00,East,80,16.0,22.0,59,0.00,,,0.00,,2013-02-20 00:31:00,
2013-02-19 14:41:00,73.0,60.0,-100.00,ENE,59,11.0,23.0,63,0.00,,,0.00,,2013-02-20 00:41:00,
2013-02-19 15:02:00,73.0,60.0,-100.00,ENE,59,11.0,23.0,63,0.00,,,0.00,,2013-02-20 01:02:00,
2013-02-19 15:11:00,73.0,60.0,-100.00,ENE,59,11.0,23.0,63,0.00,,,0.00,,2013-02-20 01:11:00,
2013-02-19 15:21:00,73.0,60.0,-100.00,ENE,59,11.0,23.0,63,0.00,,,0.00,,2013-02-20 01:21:00,
2013-02-19 15:31:00,73.0,60.0,-100.00,ENE,59,11.0,23.0,63,0.00,,,0.00,,2013-02-20 01:31:00,
2013-02-19 15:41:00,74.0,60.0,-100.00,ENE,78,13.0,24.0,61,0.00,,,0.00,,2013-02-20 01:41:00,
2013-02-19 16:01:00,74.0,60.0,-100.00,ENE,78,13.0,24.0,61,0.00,,,0.00,,2013-02-20 02:01:00,
2013-02-19 16:11:00,74.0,60.0,-100.00,ENE,78,13.0,24.0,61,0.00,,,0.00,,2013-02-20 02:11:00,
2013-02-19 16:21:00,74.0,60.0,-100.00,ENE,78,13.0,24.0,61,0.00,,,0.00,,2013-02-20 02:21:00,
2013-02-19 16:31:00,74.0,60.0,-100.00,ENE,78,13.0,24.0,61,0.00,,,0.00,,2013-02-20 02:31:00,
2013-02-19 16:41:00,71.0,56.0,-100.00,East,83,15.0,22.0,59,0.00,,,0.00,,2013-02-20 02:41:00,
2013-02-19 17:01:00,71.0,56.0,-100.00,East,83,15.0,22.0,59,0.00,,,0.00,,2013-02-20 03:01:00,
2013-02-19 17:12:00,71.0,56.0,-100.00,East,83,15.0,22.0,59,0.00,,,0.00,,2013-02-20 03:12:00,
2013-02-19 17:21:00,71.0,56.0,-100.00,East,83,15.0,22.0,59,0.00,,,0.00,,2013-02-20 03:21:00,
2013-02-19 17:32:00,71.0,56.0,-100.00,East,83,15.0,22.0,59,0.00,,,0.00,,2013-02-20 03:32:00,
2013-02-19 17:41:00,73.0,64.0,-100.00,ENE,78,13.0,19.0,73,0.02,,,0.02,,2013-02-20 03:41:00,
2013-02-19 18:01:00,73.0,64.0,-100.00,ENE,78,13.0,19.0,73,0.02,,,0.02,,2013-02-20 04:01:00,
2013-02-19 18:11:00,73.0,64.0,-100.00,ENE,78,13.0,19.0,73,0.02,,,0.02,,2013-02-20 04:11:00,
2013-02-19 18:21:00,73.0,64.0,-100.00,ENE,78,13.0,19.0,73,0.02,,,0.02,,2013-02-20 04:21:00,
2013-02-19 18:31:00,73.0,64.0,-100.00,ENE,78,13.0,19.0,73,0.02,,,0.02,,2013-02-20 04:31:00,
2013-02-19 18:41:00,71.0,59.0,-100.00,ENE,78,11.0,20.0,67,0.00,,,0.02,,2013-02-20 04:41:00,
2013-02-19 19:02:00,71.0,59.0,-100.00,ENE,78,11.0,20.0,67,0.00,,,0.02,,2013-02-20 05:02:00,
2013-02-19 19:12:00,71.0,59.0,-100.00,ENE,78,11.0,20.0,67,0.00,,,0.02,,2013-02-20 05:12:00,
2013-02-19 19:22:00,71.0,59.0,-100.00,ENE,78,11.0,20.0,67,0.00,,,0.02,,2013-02-20 05:22:00,
2013-02-19 19:32:00,71.0,59.0,-100.00,ENE,78,11.0,20.0,67,0.00,,,0.02,,2013-02-20 05:32:00,
2013-02-19 19:41:00,70.0,58.0,-100.00,ENE,66,9.0,16.0,66,0.00,,,0.02,,2013-02-20 05:41:00,
2013-02-19 20:01:00,70.0,58.0,-100.00,ENE,66,9.0,16.0,66,0.00,,,0.02,,2013-02-20 06:01:00,
2013-02-19 20:11:00,70.0,58.0,-100.00,ENE,66,9.0,16.0,66,0.00,,,0.02,,2013-02-20 06:11:00,
2013-02-19 20:21:00,70.0,58.0,-100.00,ENE,66,9.0,16.0,66,0.00,,,0.02,,2013-02-20 06:21:00,
2013-02-19 20:31:00,70.0,58.0,-100.00,ENE,66,9.0,16.0,66,0.00,,,0.02,,2013-02-20 06:31:00,
2013-02-19 20:41:00,71.0,61.0,-100.00,ENE,76,12.0,19.0,71,0.00,,,0.02,,2013-02-20 06:41:00,
2013-02-19 21:01:00,71.0,61.0,-100.00,ENE,76,12.0,19.0,71,0.00,,,0.02,,2013-02-20 07:01:00,
2013-02-19 21:11:00,71.0,61.0,-100.00,ENE,76,12.0,19.0,71,0.00,,,0.02,,2013-02-20 07:11:00,
2013-02-19 21:21:00,71.0,61.0,-100.00,ENE,76,12.0,19.0,71,0.00,,,0.02,,2013-02-20 07:21:00,
2013-02-19 21:31:00,71.0,61.0,-100.00,ENE,76,12.0,19.0,71,0.00,,,0.02,,2013-02-20 07:31:00,
2013-02-19 21:41:00,71.0,62.0,-100.00,ENE,71,9.0,19.0,73,0.00,,,0.02,,2013-02-20 07:41:00,
2013-02-19 22:05:00,71.0,62.0,-100.00,ENE,71,9.0,19.0,73,0.00,,,0.02,,2013-02-20 08:05:00,
2013-02-19 22:11:00,71.0,62.0,-100.00,ENE,71,9.0,19.0,73,0.00,,,0.02,,2013-02-20 08:11:00,
2013-02-19 22:21:00,71.0,62.0,-100.00,ENE,71,9.0,19.0,73,0.00,,,0.02,,2013-02-20 08:21:00,
2013-02-19 22:31:00,71.0,62.0,-100.00,ENE,71,9.0,19.0,73,0.00,,,0.02,,2013-02-20 08:31:00,
2013-02-19 22:41:00,71.0,63.0,-100.00,ENE,64,8.0,21.0,75,0.00,,,0.02,,2013-02-20 08:41:00,
2013-02-19 23:01:00,71.0,63.0,-100.00,ENE,64,8.0,21.0,75,0.00,,,0.02,,2013-02-20 09:01:00,
2013-02-19 23:11:00,71.0,63.0,-100.00,ENE,64,8.0,21.0,75,0.00,,,0.02,,2013-02-20 09:11:00,
2013-02-19 23:21:00,71.0,63.0,-100.00,ENE,64,8.0,21.0,75,0.00,,,0.02,,2013-02-20 09:21:00,
2013-02-19 23:31:00,71.0,63.0,-100.00,ENE,64,8.0,21.0,75,0.00,,,0.02,,2013-02-20 09:31:00,
2013-02-19 23:41:00,69.0,62.0,-100.00,NE,55,9.0,16.0,78,0.00,,,0.02,,2013-02-20 09:41:00,